Fort Madison, IA

8:38 AM CST on February 22, 2017 (GMT -0600)
Fort Madison Municipal

Weather History for KFSW - January, 2014

Change the Weather History Date:

Wednesday, January 22, 2014

  Actual Average Record
Temperature  
Mean Temperature 10 °F -  
Max Temperature 21 °F 37 °F 67 °F (1957)
Min Temperature 0 °F 18 °F -11 °F (1970)
Degree Days  
Heating Degree Days 54    
Moisture  
Dew Point 2 °F    
Average Humidity 61    
Maximum Humidity 73    
Minimum Humidity 48    
Precipitation  
Precipitation 0.00 in - - ()
Sea Level Pressure  
Sea Level Pressure 30.12 in    
Wind  
Wind Speed 12 mph (West)    
Max Wind Speed 26 mph    
Max Gust Speed 41 mph    
Visibility 10 miles    
Events Snow    
Averages and records for this station are not official NWS values.
T = Trace of Precipitation, MM = Missing Value Source: NWS Daily Summary

Daily Weather History Graph

Daily Weather History Graph

Search for Another Location

Airport or City:

Trip Planner

Search our weather history database for the weather conditions in past years. The results will help you decide how hot, cold, wet, or windy it might be!

Date:

Astronomy

Jan. 22, 2014 Rise Set
Actual Time 7:23 AM CST 5:10 PM CST
Civil Twilight 6:53 AM CST 5:40 PM CST
Nautical Twilight 6:20 AM CST 6:13 PM CST
Astronomical Twilight 5:47 AM CST 6:46 PM CST
Moon 11:46 PM CST 10:22 AM CST
Length of Visible Light 10h 46m
Length of Day
9h 47m
Waning Gibbous, 65% of the Moon is Illuminated
Jan 22
Waning Gibbous
Jan 23
Last Quarter
Jan 30
New
Feb 6
First Quarter
Feb 14
Full

Hourly Weather History & Observations

Time (CST) Temp. Windchill Dew Point Humidity Pressure Visibility Wind Dir Wind Speed Gust Speed Precip Events Conditions
12:15 AM 10.4 °F -0.4 °F -2.2 °F 57% 30.16 in 10.0 mi South 6.9 mph - N/A   Overcast
12:35 AM 10.4 °F -0.4 °F -0.4 °F 62% 30.15 in 10.0 mi SSE 6.9 mph - N/A   Overcast
12:55 AM 10.4 °F -1.5 °F -0.4 °F 62% 30.13 in 10.0 mi SSE 8.1 mph - N/A   Overcast
1:15 AM 10.4 °F -2.4 °F -0.4 °F 62% 30.11 in 10.0 mi South 9.2 mph - N/A   Overcast
1:35 AM 10.4 °F -4.1 °F -0.4 °F 62% 30.09 in 10.0 mi South 11.5 mph - N/A   Overcast
1:55 AM 10.4 °F -1.5 °F 1.4 °F 67% 30.08 in 10.0 mi South 8.1 mph - N/A   Overcast
2:15 AM 12.2 °F 0.7 °F -0.4 °F 57% 30.08 in 10.0 mi South 8.1 mph - N/A   Overcast
2:35 AM 12.2 °F 0.7 °F 1.4 °F 62% 30.08 in 10.0 mi South 8.1 mph - N/A   Overcast
2:55 AM 12.2 °F -0.2 °F 1.4 °F 62% 30.06 in 10.0 mi South 9.2 mph - N/A   Overcast
3:15 AM 12.2 °F -1.0 °F 1.4 °F 62% 30.05 in 10.0 mi South 10.4 mph - N/A   Overcast
3:55 AM 12.2 °F -0.2 °F 1.4 °F 62% 30.03 in 10.0 mi South 9.2 mph - N/A   Overcast
4:15 AM 12.2 °F -0.2 °F 1.4 °F 62% 30.03 in 10.0 mi South 9.2 mph - N/A   Overcast
4:35 AM 12.2 °F 1.7 °F 3.2 °F 67% 30.03 in 10.0 mi SSW 6.9 mph - N/A   Overcast
4:55 AM 12.2 °F 1.7 °F 1.4 °F 62% 30.02 in 10.0 mi South 6.9 mph - N/A   Overcast
5:15 AM 12.2 °F -0.2 °F 3.2 °F 67% 30.01 in 10.0 mi SSW 9.2 mph - N/A   Overcast
5:35 AM 12.2 °F 0.7 °F 3.2 °F 67% 30.01 in 10.0 mi South 8.1 mph - N/A   Overcast
5:55 AM 14.0 °F 2.9 °F 3.2 °F 62% 30.00 in 10.0 mi South 8.1 mph - N/A   Overcast
6:15 AM 14.0 °F 2.9 °F 3.2 °F 62% 30.00 in 10.0 mi SSW 8.1 mph - N/A   Overcast
6:35 AM 14.0 °F 2.0 °F 3.2 °F 62% 30.00 in 10.0 mi SSW 9.2 mph - N/A   Overcast
6:55 AM 14.0 °F 2.9 °F 5.0 °F 67% 30.01 in 10.0 mi SSW 8.1 mph - N/A Snow Light Snow
7:15 AM 14.0 °F 1.2 °F 5.0 °F 67% 30.01 in 10.0 mi SSW 10.4 mph - N/A   Overcast
7:35 AM 15.8 °F 7.2 °F 5.0 °F 62% 30.01 in 10.0 mi SSW 5.8 mph - N/A   Overcast
7:55 AM 15.8 °F 5.1 °F 5.0 °F 62% 30.01 in 10.0 mi SW 8.1 mph - N/A   Overcast
8:15 AM 15.8 °F 6.1 °F 5.0 °F 62% 30.01 in 10.0 mi WSW 6.9 mph - N/A   Overcast
8:35 AM 15.8 °F 8.6 °F 6.8 °F 68% 30.02 in 10.0 mi West 4.6 mph - N/A Snow Light Snow
8:55 AM 17.6 °F 5.7 °F 6.8 °F 63% 30.02 in 10.0 mi West 10.4 mph - N/A Snow Light Snow
9:15 AM 17.6 °F 2.7 °F 8.6 °F 68% 30.03 in 10.0 mi WNW 16.1 mph - N/A Snow Light Snow
9:35 AM 17.6 °F 1.7 °F 8.6 °F 68% 30.03 in 10.0 mi NW 18.4 mph - N/A Snow Light Snow
9:55 AM 17.6 °F 5.0 °F 10.4 °F 73% 30.03 in 5.0 mi NW 11.5 mph 19.6 mph N/A Snow Light Snow
10:15 AM 19.4 °F 4.5 °F 8.6 °F 63% 30.04 in 7.0 mi WNW 17.3 mph 25.3 mph N/A Snow Light Snow
10:35 AM 19.4 °F 5.5 °F 6.8 °F 58% 30.04 in 10.0 mi NW 15.0 mph 25.3 mph N/A   Scattered Clouds
10:55 AM 19.4 °F 5.5 °F 6.8 °F 58% 30.03 in 10.0 mi NW 15.0 mph 19.6 mph N/A   Clear
11:15 AM 19.4 °F 7.2 °F 6.8 °F 58% 30.03 in 10.0 mi WNW 11.5 mph 21.9 mph N/A   Clear
11:35 AM 19.4 °F 5.5 °F 8.6 °F 63% 30.03 in 10.0 mi NW 15.0 mph 19.6 mph N/A   Clear
11:55 AM 19.4 °F 4.5 °F 6.8 °F 58% 30.04 in 10.0 mi NW 17.3 mph - N/A   Mostly Cloudy
12:15 PM 19.4 °F 4.1 °F 6.8 °F 58% 30.04 in 10.0 mi WNW 18.4 mph 25.3 mph N/A   Overcast
12:35 PM 19.4 °F 5.0 °F 8.6 °F 63% 30.03 in 10.0 mi West 16.1 mph - N/A   Mostly Cloudy
12:55 PM 21.2 °F 8.3 °F 6.8 °F 54% 30.03 in 10.0 mi West 13.8 mph - N/A   Mostly Cloudy
1:15 PM 21.2 °F 6.0 °F 8.6 °F 58% 30.03 in 10.0 mi WNW 19.6 mph 23.0 mph N/A   Mostly Cloudy
1:35 PM 19.4 °F 1.8 °F 6.8 °F 58% 30.04 in 10.0 mi NW 25.3 mph 31.1 mph N/A   Mostly Cloudy
1:55 PM 17.6 °F 2.2 °F 6.8 °F 63% 30.06 in 10.0 mi NW 17.3 mph 26.5 mph N/A   Mostly Cloudy
2:15 PM 17.6 °F 3.7 °F 6.8 °F 63% 30.06 in 10.0 mi NW 13.8 mph 24.2 mph N/A   Overcast
2:35 PM 19.4 °F 3.2 °F 6.8 °F 58% 30.06 in 10.0 mi WNW 20.7 mph 25.3 mph N/A   Overcast
2:55 PM 19.4 °F 4.1 °F 6.8 °F 58% 30.07 in 10.0 mi WNW 18.4 mph 24.2 mph N/A   Overcast
3:15 PM 19.4 °F 3.2 °F 6.8 °F 58% 30.07 in 10.0 mi WNW 20.7 mph 25.3 mph N/A   Overcast
3:35 PM 19.4 °F 2.5 °F 6.8 °F 58% 30.08 in 10.0 mi WNW 23.0 mph 28.8 mph N/A   Overcast
3:55 PM 19.4 °F 2.8 °F 6.8 °F 58% 30.09 in 7.0 mi WNW 21.9 mph 28.8 mph N/A   Overcast
4:15 PM 19.4 °F 4.1 °F 10.4 °F 68% 30.10 in 4.0 mi WNW 18.4 mph 25.3 mph N/A Snow Light Snow
4:35 PM 17.6 °F 1.7 °F 10.4 °F 73% 30.11 in 2.5 mi WNW 18.4 mph 31.1 mph N/A Snow Light Snow
4:55 PM 17.6 °F 1.3 °F 6.8 °F 63% 30.12 in 10.0 mi NW 19.6 mph 31.1 mph N/A   Mostly Cloudy
5:15 PM 17.6 °F 2.2 °F 6.8 °F 63% 30.13 in 10.0 mi NW 17.3 mph 26.5 mph N/A   Overcast
5:35 PM 15.8 °F -2.3 °F 6.8 °F 68% 30.14 in 7.0 mi NW 23.0 mph 31.1 mph N/A   Overcast
5:55 PM 14.0 °F -3.4 °F 1.4 °F 57% 30.16 in 10.0 mi NW 19.6 mph 26.5 mph N/A   Mostly Cloudy
6:15 PM 12.2 °F -5.3 °F -0.4 °F 57% 30.17 in 10.0 mi NW 18.4 mph 24.2 mph N/A   Scattered Clouds
6:35 PM 12.2 °F -8.2 °F -2.2 °F 53% 30.19 in 10.0 mi NW 26.5 mph 39.1 mph N/A   Scattered Clouds
6:55 PM 10.4 °F -10.7 °F -5.8 °F 48% 30.21 in 10.0 mi NW 26.5 mph 35.7 mph N/A   Scattered Clouds
7:15 PM 8.6 °F -12.7 °F -5.8 °F 52% 30.22 in 10.0 mi NW 25.3 mph 33.4 mph N/A   Clear
7:35 PM 6.8 °F -14.7 °F -5.8 °F 56% 30.24 in 10.0 mi NW 24.2 mph 32.2 mph N/A   Clear
7:55 PM 6.8 °F -13.4 °F -7.6 °F 52% 30.26 in 10.0 mi NW 20.7 mph 41.4 mph N/A   Clear
8:15 PM 5.0 °F -17.1 °F -7.6 °F 56% 30.27 in 10.0 mi NW 24.2 mph 29.9 mph N/A   Scattered Clouds
8:35 PM 3.2 °F -19.0 °F -7.6 °F 61% 30.28 in 10.0 mi NNW 23.0 mph 29.9 mph N/A   Scattered Clouds
8:55 PM 3.2 °F -19.5 °F -7.6 °F 61% 30.29 in 10.0 mi NW 24.2 mph 31.1 mph N/A   Scattered Clouds
9:15 PM 3.2 °F -19.0 °F -9.4 °F 56% 30.30 in 10.0 mi NNW 23.0 mph 31.1 mph N/A   Scattered Clouds
9:35 PM 1.4 °F -22.3 °F -11.2 °F 56% 30.31 in 10.0 mi NNW 25.3 mph 31.1 mph N/A   Clear
9:55 PM 1.4 °F -20.5 °F -11.2 °F 56% 30.33 in 10.0 mi NNW 20.7 mph 33.4 mph N/A   Clear
10:15 PM 1.4 °F -20.5 °F -9.4 °F 61% 30.34 in 10.0 mi NW 20.7 mph 29.9 mph N/A   Scattered Clouds
10:35 PM 1.4 °F -18.2 °F -11.2 °F 56% 30.36 in 10.0 mi NW 16.1 mph 26.5 mph N/A   Scattered Clouds
10:55 PM -0.4 °F -19.9 °F -11.2 °F 60% 30.38 in 10.0 mi NW 15.0 mph 31.1 mph N/A   Scattered Clouds
11:15 PM -0.4 °F -19.9 °F -11.2 °F 60% 30.39 in 10.0 mi NW 15.0 mph 19.6 mph N/A   Scattered Clouds
11:35 PM -0.4 °F -21.2 °F -11.2 °F 60% 30.40 in 10.0 mi NW 17.3 mph 26.5 mph N/A   Scattered Clouds
11:55 PM -0.4 °F -19.9 °F -11.2 °F 60% 30.41 in 10.0 mi NW 15.0 mph 23.0 mph N/A   Mostly Cloudy